| time (UTC) | temp F | wind direction | speed MPH | gust MPH | rain 1hr in | rain 24hr in | rain mn in | humidity % | barometer mb |
| 20260507210133 | 88 | 123 | 3.0 | 11.0 | 0.00 | 0.00 | 0.00 | 77 | 1017.6 |
| 20260507204531 | 89 | 123 | 5.0 | 13.0 | 0.00 | 0.00 | 0.00 | 76 | 1017.8 |
| 20260507203028 | 94 | 123 | 2.0 | 12.0 | 0.00 | 0.00 | 0.00 | 70 | 1017.7 |
| 20260507201530 | 91 | 123 | 3.0 | 12.0 | 0.00 | 0.00 | 0.00 | 71 | 1017.8 |
| 20260507200027 | 94 | 123 | 5.0 | 10.0 | 0.00 | 0.00 | 0.00 | 69 | 1018.0 |
| 20260507194525 | 92 | 123 | 5.0 | 14.0 | 0.00 | 0.00 | 0.00 | 70 | 1018.2 |
| 20260507193024 | 89 | 123 | 5.0 | 12.0 | 0.00 | 0.00 | 0.00 | 74 | 1018.3 |
| 20260507191524 | 89 | 123 | 3.0 | 12.0 | 0.00 | 0.00 | 0.00 | 75 | 1018.1 |
| 20260507190026 | 92 | 123 | 1.0 | 11.0 | 0.00 | 0.00 | 0.00 | 71 | 1018.2 |
| 20260507184521 | 92 | 123 | 3.0 | 13.0 | 0.00 | 0.00 | 0.00 | 71 | 1018.3 |
| 20260507183022 | 92 | 123 | 3.0 | 12.0 | 0.00 | 0.00 | 0.00 | 71 | 1018.5 |
| 20260507181517 | 98 | 123 | 4.0 | 14.0 | 0.00 | 0.00 | 0.00 | 63 | 1018.7 |
| 20260507180019 | 101 | 123 | 3.0 | 10.0 | 0.00 | 0.00 | 0.00 | 60 | 1018.7 |
| 20260507174516 | 100 | 123 | 5.0 | 9.0 | 0.00 | 0.00 | 0.00 | 62 | 1018.8 |
| 20260507173015 | 94 | 123 | 2.0 | 11.0 | 0.00 | 0.00 | 0.00 | 68 | 1019.0 |
| 20260507171514 | 92 | 123 | 1.0 | 10.0 | 0.00 | 0.00 | 0.00 | 73 | 1019.3 |
| 20260507170013 | 98 | 123 | 3.0 | 12.0 | 0.00 | 0.00 | 0.00 | 65 | 1019.3 |
| 20260507164513 | 98 | 123 | 5.0 | 11.0 | 0.00 | 0.00 | 0.00 | 67 | 1019.6 |
| 20260507163015 | 96 | 123 | 4.0 | 13.0 | 0.00 | 0.00 | 0.00 | 67 | 1019.5 |
| 20260507161511 | 94 | 123 | 4.0 | 14.0 | 0.00 | 0.00 | 0.00 | 70 | 1019.7 |
| 20260507160012 | 90 | 123 | 2.0 | 14.0 | 0.00 | 0.00 | 0.00 | 75 | 1019.8 |
| 20260507154510 | 89 | 123 | 2.0 | 7.0 | 0.00 | 0.00 | 0.00 | 75 | 1020.1 |
| 20260507153009 | 93 | 123 | 0.0 | 10.0 | 0.00 | 0.00 | 0.00 | 71 | 1020.0 |
| 20260507151509 | 95 | 123 | 1.0 | 8.0 | 0.00 | 0.00 | 0.00 | 65 | 1020.0 |
| 20260507150011 | 105 | 123 | 0.0 | 5.0 | 0.00 | 0.00 | 0.00 | 54 | 1020.4 |
| 20260507144504 | 98 | 123 | 0.0 | 9.0 | 0.00 | 0.00 | 0.00 | 62 | 1020.4 |
| 20260507143002 | 95 | 123 | 1.0 | 6.0 | 0.00 | 0.00 | 0.00 | 63 | 1020.5 |
| 20260507141501 | 96 | 123 | 1.0 | 6.0 | 0.00 | 0.00 | 0.00 | 61 | 1020.7 |
| 20260507140111 | 99 | 123 | 2.0 | 7.0 | 0.00 | 0.00 | 0.00 | 58 | 1020.7 |
| 20260507134555 | 97 | 123 | 0.0 | 4.0 | 0.00 | 0.00 | 0.00 | 62 | 1020.7 |
| 20260507133052 | 94 | 123 | 1.0 | 7.0 | 0.00 | 0.00 | 0.00 | 63 | 1020.6 |
| 20260507131550 | 95 | 123 | 1.0 | 5.0 | 0.00 | 0.00 | 0.00 | 63 | 1020.6 |
| 20260507130046 | 93 | 123 | 2.0 | 6.0 | 0.00 | 0.00 | 0.00 | 64 | 1020.4 |
| 20260507124542 | 92 | 123 | 1.0 | 4.0 | 0.00 | 0.00 | 0.00 | 67 | 1020.5 |
| 20260507123039 | 90 | 123 | 1.0 | 4.0 | 0.00 | 0.00 | 0.00 | 69 | 1020.4 |
| 20260507121537 | 90 | 123 | 1.0 | 6.0 | 0.00 | 0.00 | 0.00 | 70 | 1020.2 |
| 20260507120034 | 0 | 0.0 | 0.0 | 0.00 | 0.00 | 0.00 | 1019.9 | ||
| 20260507114529 | 0 | 0.0 | 0.0 | 0.00 | 0.00 | 0.00 | 1019.9 | ||
| 20260507113025 | 0 | 0.0 | 0.0 | 0.00 | 0.00 | 0.00 | 1019.5 | ||
| 20260507111521 | 0 | 0.0 | 0.0 | 0.00 | 0.00 | 0.00 | 1019.6 | ||
| 20260507110017 | 0 | 0.0 | 0.0 | 0.00 | 0.00 | 0.00 | 1019.5 | ||
| 20260507104520 | 0 | 0.0 | 0.0 | 0.00 | 0.00 | 0.00 | 1019.2 | ||
| 20260507103009 | 0 | 0.0 | 0.0 | 0.00 | 0.00 | 0.00 | 1019.2 | ||
| 20260507101508 | 0 | 0.0 | 0.0 | 0.00 | 0.00 | 0.00 | 1019.0 | ||
| 20260507094600 | 0 | 0.0 | 0.0 | 0.00 | 0.00 | 0.00 | 1019.0 | ||
| 20260507093050 | 0 | 0.0 | 0.0 | 0.00 | 0.00 | 0.00 | 1018.7 | ||
| 20260507091558 | 0 | 0.0 | 0.0 | 0.00 | 0.00 | 0.00 | 1018.7 | ||
| 20260507084537 | 72 | 123 | 0.0 | 0.0 | 0.00 | 0.00 | 0.00 | 99 | 1018.9 |
| 20260507083036 | 72 | 123 | 0.0 | 0.0 | 0.00 | 0.00 | 0.00 | 99 | 1019.0 |
| 20260507081549 | 72 | 123 | 0.0 | 0.0 | 0.00 | 0.00 | 0.00 | 100 | 1018.9 |
| 20260507080033 | 72 | 123 | 0.0 | 0.0 | 0.00 | 0.00 | 0.00 | 100 | 1018.9 |
| 20260507074536 | 73 | 123 | 0.0 | 0.0 | 0.00 | 0.00 | 0.00 | 100 | 1019.0 |
| 20260507073029 | 73 | 123 | 0.0 | 0.0 | 0.00 | 0.00 | 0.00 | 100 | 1018.9 |
| 20260507071528 | 73 | 123 | 0.0 | 0.0 | 0.00 | 0.00 | 0.00 | 100 | 1019.1 |
| 20260507070026 | 73 | 123 | 0.0 | 1.0 | 0.00 | 0.00 | 0.00 | 100 | 1019.2 |
| 20260507064526 | 74 | 123 | 0.0 | 1.0 | 0.00 | 0.00 | 0.00 | 100 | 1019.2 |
| 20260507063021 | 74 | 123 | 0.0 | 2.0 | 0.00 | 0.00 | 0.00 | 100 | 1019.4 |
| 20260507061529 | 75 | 123 | 0.0 | 2.0 | 0.00 | 0.00 | 0.00 | 100 | 1019.6 |
| 20260507060027 | 75 | 123 | 0.0 | 1.0 | 0.00 | 0.00 | 0.00 | 100 | 1019.7 |
| 20260507054515 | 75 | 123 | 0.0 | 1.0 | 0.00 | 0.00 | 0.00 | 100 | 1019.8 |
| 20260507053015 | 76 | 123 | 0.0 | 4.0 | 0.00 | 0.00 | 0.00 | 100 | 1020.1 |
| 20260507051511 | 76 | 123 | 2.0 | 4.0 | 0.00 | 0.00 | 0.00 | 100 | 1020.2 |
| 20260507050020 | 76 | 123 | 1.0 | 4.0 | 0.00 | 0.00 | 0.00 | 100 | 1020.4 |
| 20260507044515 | 76 | 123 | 1.0 | 6.0 | 0.00 | 0.00 | 0.00 | 100 | 1020.6 |
| 20260507043004 | 76 | 123 | 1.0 | 4.0 | 0.00 | 0.00 | 0.00 | 100 | 1020.7 |
| 20260507041502 | 77 | 123 | 1.0 | 7.0 | 0.00 | 0.00 | 0.00 | 100 | 1020.8 |
| 20260507040100 | 77 | 123 | 1.0 | 3.0 | 0.00 | 0.00 | 0.00 | 100 | 1021.0 |
| 20260507034603 | 77 | 124 | 0.0 | 1.0 | 0.00 | 0.00 | 0.00 | 100 | 1021.1 |
| 20260507033059 | 78 | 123 | 0.0 | 0.0 | 0.00 | 0.00 | 0.00 | 100 | 1021.2 |
| 20260507031558 | 78 | 123 | 0.0 | 0.0 | 0.00 | 0.00 | 0.00 | 100 | 1021.3 |
| 20260507030107 | 78 | 123 | 0.0 | 4.0 | 0.00 | 0.00 | 0.00 | 100 | 1021.4 |
| 20260507024612 | 79 | 124 | 0.0 | 4.0 | 0.00 | 0.00 | 0.00 | 99 | 1021.3 |
| 20260507023056 | 78 | 123 | 1.0 | 3.0 | 0.00 | 0.00 | 0.00 | 100 | 1021.4 |
| 20260507021615 | 78 | 123 | 0.0 | 1.0 | 0.00 | 0.00 | 0.00 | 100 | 1021.3 |
| 20260507020104 | 78 | 123 | 0.0 | 3.0 | 0.00 | 0.00 | 0.00 | 100 | 1021.3 |
| 20260507014612 | 78 | 123 | 1.0 | 3.0 | 0.00 | 0.00 | 0.00 | 99 | 1021.1 |
| 20260507013056 | 78 | 123 | 0.0 | 3.0 | 0.00 | 0.00 | 0.00 | 99 | 1021.0 |
| 20260507011553 | 78 | 123 | 0.0 | 3.0 | 0.00 | 0.00 | 0.00 | 99 | 1020.9 |
| 20260507010107 | 78 | 123 | 0.0 | 2.0 | 0.00 | 0.00 | 0.00 | 98 | 1020.9 |
| 20260507004551 | 78 | 123 | 0.0 | 1.0 | 0.00 | 0.38 | 0.00 | 98 | 1020.8 |
| 20260507003051 | 78 | 123 | 0.0 | 2.0 | 0.00 | 0.38 | 0.00 | 98 | 1020.7 |
| 20260507001553 | 78 | 123 | 0.0 | 5.0 | 0.00 | 0.38 | 0.00 | 97 | 1020.5 |
| 20260507000049 | 79 | 123 | 1.0 | 4.0 | 0.00 | 0.38 | 0.00 | 96 | 1020.2 |
| 20260506234547 | 79 | 123 | 1.0 | 5.0 | 0.00 | 0.38 | 0.00 | 96 | 1020.3 |
| 20260506233052 | 79 | 123 | 0.0 | 4.0 | 0.00 | 0.38 | 0.00 | 95 | 1020.0 |
| 20260506231547 | 79 | 123 | 0.0 | 5.0 | 0.00 | 0.38 | 0.00 | 94 | 1020.0 |
| 20260506230046 | 80 | 123 | 0.0 | 6.0 | 0.00 | 0.38 | 0.00 | 93 | 1019.6 |
| 20260506224544 | 81 | 123 | 1.0 | 6.0 | 0.00 | 0.38 | 0.00 | 91 | 1019.5 |
| 20260506223046 | 81 | 123 | 2.0 | 7.0 | 0.00 | 0.38 | 0.00 | 88 | 1019.3 |
| 20260506221547 | 83 | 123 | 4.0 | 8.0 | 0.00 | 0.38 | 0.00 | 84 | 1019.2 |
| 20260506220044 | 87 | 123 | 3.0 | 8.0 | 0.00 | 0.38 | 0.00 | 74 | 1019.0 |
| 20260506214545 | 91 | 123 | 0.0 | 5.0 | 0.00 | 0.38 | 0.00 | 70 | 1018.9 |
| 20260506213043 | 95 | 123 | 2.0 | 9.0 | 0.00 | 0.38 | 0.00 | 66 | 1018.8 |
| 20260506211542 | 92 | 123 | 2.0 | 6.0 | 0.00 | 0.38 | 0.00 | 69 | 1018.7 |